Location: Home
(42.5358°N, 72.7383°W)
Time: 21:42:06
(UTC-05:00)

Vanguard 2 Rocket - Pass Details

Date: 02 December 2021
Orbit: 554 x 3325 km, 32.9° (Epoch: 21 January)

Event Time Altitude Azimuth Distance (km) Brightness Sun altitude
Rises 23:10:14 0° 271° (W) 4,943 - -68.6°
Reaches altitude 10° 23:13:22 10° 263° (W) 4,294 - -68.8°
Maximum altitude 23:24:22 36° 203° (SSW) 3,589 - -69.3°
Drops below altitude 10° 23:40:19 10° 145° (SE) 6,163 - -69.6°
Sets 23:46:02 0° 139° (SE) 7,293 - -69.6°
